GEFSSE_con_prob3kmehi_120.txt.gz
EHI
7 12 24 40 53 60 60 55 52 51 48 39 29 21 15 9 5 3 2 1 0 0 0 0 0 0 0 0 0 0 0 0 0 0 0 0 0 0 0 0 0 0 0
16 17 26 42 56 61 60 55 51 48 42 33 23 16 12 7 4 2 1 0 0 0 0 0 0 0 0 0 0 0 0 0 0 0 0 0 0 0 0 0 0 0 0
32 26 28 43 57 61 58 52 46 38 31 24 16 10 7 4 2 1 0 0 0 0 0 0 0 0 0 0 0 0 0 0 0 0 0 0 0 0 0 0 0 0 0
41 31 31 44 56 58 54 48 38 28 20 14 10 6 4 2 1 0 0 0 0 0 0 0 0 0 0 0 0 0 0 0 0 0 0 0 0 0 0 0 0 0 0
43 35 36 48 55 56 53 43 32 22 14 9 5 4 3 3 2 1 0 0 0 0 0 0 0 0 0 0 0 0 0 0 0 0 0 0 0 0 0 0 0 0 0
42 35 39 52 58 56 51 40 28 19 13 7 4 3 3 3 2 1 0 0 0 0 0 0 0 0 0 0 0 0 0 0 0 0 0 0 0 0 0 0 0 0 0
44 38 42 55 61 55 45 34 25 18 12 7 4 3 3 3 2 1 0 0 0 0 0 0 0 0 0 0 0 0 0 0 0 0 0 0 0 0 0 0 0 0 0
48 42 43 53 57 49 36 27 21 15 10 7 4 3 2 1 1 0 0 0 0 0 0 0 0 0 0 0 0 0 0 0 0 0 0 0 0 0 1 0 0 0 0
48 46 43 43 43 37 28 22 18 12 7 4 2 1 1 0 0 0 0 0 0 0 0 0 0 0 0 0 0 0 0 0 0 0 0 0 0 0 0 0 0 0 0
46 47 45 39 32 26 20 17 15 10 5 2 0 0 0 1 1 1 0 0 0 0 0 0 0 0 0 0 0 0 0 0 0 0 0 0 0 0 0 0 0 0 0
42 45 46 41 31 23 16 12 10 8 5 2 0 0 1 1 1 1 1 0 0 0 0 0 0 0 0 1 0 0 0 0 0 0 0 0 0 0 0 0 0 0 1
34 35 38 35 29 22 16 10 8 6 4 2 1 2 2 2 1 1 1 0 0 0 0 0 0 0 0 0 0 0 0 0 0 0 0 0 0 1 2 1 1 1 1
23 22 23 24 22 19 15 12 10 8 5 4 4 4 5 4 2 2 1 0 0 0 0 0 0 0 0 0 0 0 0 0 0 0 0 0 0 1 3 4 3 2 2
15 13 12 14 16 14 13 11 10 9 7 5 4 5 5 3 1 1 1 0 0 0 0 0 1 1 0 0 1 1 1 1 0 0 0 0 0 1 3 5 4 3 2
12 10 9 10 12 11 9 8 8 8 6 4 3 3 3 2 1 0 0 0 0 0 0 0 1 1 1 1 1 1 2 1 0 0 0 0 0 1 3 4 3 2 2
10 10 9 8 9 8 5 5 6 6 5 4 2 1 1 1 0 0 0 0 0 0 0 0 1 1 1 1 1 1 1 1 0 0 0 0 0 1 3 4 3 1 1
9 10 9 7 6 4 2 1 2 3 3 2 1 0 1 1 0 0 0 0 0 1 0 0 0 0 1 1 0 0 0 0 0 0 0 0 0 0 2 4 4 2 2
9 9 10 9 6 3 1 0 0 1 1 0 0 1 2 2 1 0 0 0 0 0 0 0 0 0 0 0 0 0 0 0 0 0 0 0 0 0 1 3 4 3 2
9 10 12 13 8 3 1 1 0 0 0 0 0 1 2 2 1 0 0 0 0 0 0 0 0 0 0 0 0 0 0 0 0 0 0 0 0 0 0 1 2 2 1
10 11 13 12 8 3 2 1 0 0 0 0 0 1 1 1 0 0 0 0 0 0 0 0 0 0 0 0 0 0 0 0 0 0 0 0 0 0 0 0 0 0 0
12 12 11 8 3 1 1 1 0 0 0 0 0 0 0 0 0 0 0 0 0 0 0 0 0 0 0 0 0 0 0 0 0 0 0 0 0 0 0 0 0 0 0
9 9 7 4 1 0 0 0 0 0 0 0 0 0 0 0 0 0 0 0 0 0 0 0 0 0 0 0 0 0 0 0 0 0 0 0 0 0 0 0 0 0 0
6 6 5 2 0 0 0 0 0 0 0 0 0 0 0 0 0 0 0 0 0 0 0 0 0 0 0 0 0 0 0 0 0 0 0 0 0 0 0 0 0 0 0
3 4 3 1 0 0 0 0 0 0 0 0 0 0 0 0 0 0 0 0 0 0 0 0 0 0 0 0 0 0 0 0 0 0 0 0 0 0 0 0 0 0 0
1 1 1 0 0 0 0 0 0 0 0 0 0 0 0 0 0 0 0 0 0 0 0 0 0 0 0 0 0 0 0 0 0 0 0 0 0 0 0 0 0 0 0
0 0 0 0 0 0 0 0 0 0 0 0 0 0 0 0 0 0 0 0 0 0 0 0 0 0 0 0 0 0 0 0 0 0 0 0 0 0 0 0 0 0 0

GEFSSE_con_prob3kmehi_126.txt.gz
EHI
8 11 14 11 9 11 16 19 21 22 21 17 12 8 5 4 3 3 2 1 0 0 0 0 0 0 0 0 0 0 0 0 0 0 0 0 0 0 0 0 0 0 0
14 14 13 12 11 13 19 23 25 26 25 20 14 9 5 3 3 3 2 1 0 0 0 0 0 0 0 0 0 0 0 0 0 0 0 0 0 0 0 0 0 0 0
21 16 11 11 13 16 23 26 27 27 26 20 15 9 5 3 3 3 2 1 0 0 0 0 0 0 0 0 0 0 0 0 0 0 0 0 0 0 0 0 0 0 0
21 15 11 11 13 16 21 23 23 22 19 15 10 7 4 3 3 2 1 0 0 0 0 0 0 0 0 0 0 0 0 0 0 0 0 0 0 0 0 0 0 0 0
15 14 14 13 11 11 14 17 17 14 11 8 5 4 3 3 2 1 0 0 0 0 0 0 0 0 0 0 0 0 0 0 0 0 0 0 0 0 0 0 0 0 0
9 12 17 16 10 8 9 11 12 11 8 5 3 3 3 2 1 0 0 0 0 0 0 0 0 0 0 0 0 0 0 0 1 0 0 0 0 0 0 0 0 0 0
5 10 16 16 10 6 6 8 9 10 8 5 4 2 1 1 0 0 0 0 0 0 0 0 0 0 0 0 0 0 0 0 0 0 0 0 0 0 0 0 0 0 0
5 9 13 11 7 4 4 5 7 8 7 6 4 2 0 0 0 0 0 0 0 0 0 0 0 0 0 0 0 0 0 0 0 0 0 0 0 0 0 0 0 0 0
7 9 9 7 4 3 2 2 3 4 5 4 3 1 0 0 0 0 0 0 0 0 0 0 0 0 0 0 0 0 0 0 0 0 0 0 0 0 0 0 0 0 0
10 10 8 5 4 4 2 2 2 2 2 1 1 0 0 0 0 0 1 1 0 0 0 0 0 0 0 0 0 0 0 0 0 0 0 0 1 0 0 0 0 0 0
14 12 10 8 7 5 4 3 3 1 0 0 0 0 0 0 0 1 3 2 1 0 0 0 0 0 0 0 0 0 0 0 0 0 0 1 1 0 0 0 0 0 0
18 14 11 11 9 7 6 6 5 2 1 0 0 0 0 0 0 2 5 5 3 1 1 1 1 1 1 0 1 1 0 0 0 0 0 1 0 0 0 0 0 1 1
20 15 13 13 11 8 8 10 8 5 3 2 2 1 1 1 1 3 6 6 5 4 3 2 2 3 3 2 2 2 1 0 0 1 1 1 0 0 0 0 0 1 2
19 16 14 14 12 9 9 11 10 8 6 6 5 4 3 1 1 4 7 8 7 5 4 4 4 4 4 4 3 2 1 0 0 1 2 2 1 0 0 0 0 1 2
18 17 15 14 11 9 8 10 10 8 8 7 7 6 4 2 2 4 8 10 8 6 5 5 5 4 4 3 2 1 0 0 1 1 1 1 1 0 0 0 0 1 2
19 20 18 13 9 8 8 10 10 8 8 7 5 5 5 4 4 4 6 9 8 5 5 4 4 4 3 2 1 0 0 0 1 0 0 0 0 0 0 0 0 1 2
21 22 19 12 9 10 11 12 10 8 7 6 4 4 6 7 8 6 5 6 5 4 3 3 3 3 3 1 0 0 0 1 1 0 0 0 0 0 1 0 0 1 2
21 20 16 10 10 14 15 15 11 8 7 7 5 5 7 9 10 9 7 4 3 2 2 2 2 1 1 0 0 0 1 1 1 0 0 0 0 0 1 0 0 1 1
17 15 11 8 9 14 16 16 13 10 9 8 7 7 9 9 9 8 6 3 2 1 2 4 3 1 0 0 0 0 1 2 1 0 0 0 0 0 1 0 0 0 1
14 13 10 9 10 13 15 14 12 9 7 6 6 8 8 8 7 5 3 1 1 1 3 5 5 3 1 1 0 0 1 1 0 0 0 0 0 0 0 1 1 2 3
13 13 13 13 13 13 13 13 10 7 5 5 6 7 7 7 5 3 1 1 1 2 3 4 4 2 1 1 0 0 0 0 0 0 0 0 0 0 0 1 3 5 5
15 16 17 17 15 13 12 12 11 8 5 5 5 5 4 4 3 2 2 2 2 2 2 2 1 1 1 1 0 0 0 0 0 0 1 0 0 0 0 1 3 4 4
17 18 19 18 15 11 10 11 11 9 5 4 3 2 2 1 1 1 1 1 2 2 2 2 1 0 1 1 0 0 0 0 0 0 0 0 0 0 0 0 1 1 1
14 16 18 18 15 10 8 9 9 6 3 1 1 1 1 0 0 0 0 0 1 1 1 1 0 0 0 0 0 0 0 0 0 0 0 0 0 0 0 0 0 0 0
8 11 15 16 13 9 6 6 6 3 2 1 1 1 1 0 0 0 0 0 0 0 0 0 0 0 0 0 0 0 0 0 0 0 0 0 0 0 0 0 0 0 0
6 8 12 14 13 8 4 4 4 3 3 2 1 1 0 0 0 0 0 0 0 0 0 0 0 0 0 0 0 0 0 0 0 0 0 0 0 0 0 0 0 0 0

GEFSSE_con_prob3kmehi_132.txt.gz
EHI
48 45 43 30 11 3 0 1 2 2 1 0 0 0 0 0 0 0 0 0 0 0 0 0 0 0 0 1 1 1 0 0 0 0 0 0 0 0 0 0 0 0 0
55 49 46 34 15 4 0 0 1 1 0 0 0 0 0 0 0 0 0 0 0 0 0 0 0 0 0 0 0 0 0 0 0 0 0 0 0 0 0 0 0 0 0
57 49 44 36 19 7 2 0 0 0 0 0 0 0 0 0 0 0 0 0 0 0 0 0 0 0 0 0 0 0 0 0 0 0 0 0 0 0 0 0 0 0 0
51 43 41 37 25 13 6 2 1 0 0 0 0 0 0 0 0 0 0 0 0 0 0 0 0 0 0 0 0 0 0 0 0 0 0 0 0 0 0 0 0 0 0
46 45 46 42 31 19 12 7 4 1 0 0 0 0 0 0 0 0 0 0 0 0 0 0 0 0 0 0 0 0 0 1 1 1 0 0 0 0 0 0 0 0 0
50 52 54 49 36 22 14 11 7 4 1 1 0 0 0 0 0 0 0 0 0 0 0 0 0 0 0 0 0 0 1 3 5 4 2 1 0 0 0 0 0 0 0
58 57 55 50 37 22 13 11 9 6 3 2 1 0 0 0 0 0 0 0 0 0 0 0 0 0 0 0 0 1 3 7 7 5 5 3 0 0 0 0 0 0 0
64 58 50 44 33 19 12 10 8 5 3 3 2 0 0 0 1 1 1 0 0 0 0 0 0 0 0 0 0 1 4 7 6 5 6 3 1 1 1 1 0 0 0
63 51 38 31 23 14 9 8 6 4 3 2 1 0 0 0 1 2 2 1 0 0 0 0 0 0 0 0 0 0 3 6 5 4 5 3 2 2 2 2 1 0 0
58 42 26 19 14 9 8 7 5 4 2 1 0 0 0 0 0 1 2 2 1 0 0 0 0 0 0 0 0 0 2 3 3 4 4 3 2 3 3 2 1 0 0
57 42 26 18 14 9 7 8 6 4 2 0 1 1 0 0 0 2 3 4 3 1 0 0 0 0 0 0 0 1 1 0 1 4 5 4 3 3 3 3 1 0 0
62 49 35 27 21 15 12 10 8 6 4 3 3 3 1 0 2 5 8 8 6 3 1 1 2 1 0 1 1 1 0 0 1 3 5 5 5 5 4 3 2 1 1
64 57 47 39 33 28 21 13 11 10 9 8 8 7 4 4 6 12 16 15 10 5 4 6 5 2 1 3 2 1 1 1 2 3 5 7 8 7 7 5 3 3 3
64 61 55 49 46 43 34 23 17 15 13 14 15 13 11 12 14 20 24 23 16 11 12 14 10 4 3 3 3 2 2 2 4 5 6 8 7 6 7 6 4 4 5
64 62 60 57 55 55 48 36 26 21 18 21 21 17 16 18 20 22 24 21 16 16 20 18 13 7 4 4 4 2 1 2 5 6 6 6 6 5 5 4 2 3 5
60 61 63 62 61 60 53 40 30 25 24 26 24 20 17 18 20 20 17 12 11 15 19 16 10 7 4 3 3 2 1 2 4 5 5 6 6 5 4 3 2 2 4
59 62 62 59 61 61 52 40 31 27 27 27 24 21 18 16 17 17 14 9 8 13 15 11 7 5 3 2 2 1 1 2 4 5 6 6 5 4 5 5 3 3 3
60 62 57 52 55 56 49 39 33 31 30 29 25 23 19 15 14 15 13 8 7 10 11 8 5 4 2 2 1 0 1 3 3 3 4 5 5 4 6 6 4 2 1
57 58 56 52 50 46 39 33 33 34 33 30 27 24 20 16 13 12 10 7 6 7 7 6 6 5 4 2 1 0 1 3 2 1 2 3 5 5 6 6 5 2 1
49 52 55 55 48 39 31 28 29 31 29 26 25 23 19 16 12 9 8 7 5 4 5 5 5 5 4 2 1 0 1 2 2 1 1 2 3 5 5 6 6 5 4
40 43 48 49 43 34 29 27 27 26 21 20 22 20 16 14 10 7 6 6 3 3 3 3 3 3 2 1 0 0 0 1 2 2 2 1 2 3 4 6 7 7 7
33 34 37 39 35 30 26 24 24 20 16 18 21 18 14 11 8 6 6 5 1 2 3 2 1 0 0 0 0 0 0 1 1 2 1 1 1 1 3 5 7 8 7
26 27 30 32 31 27 23 19 17 15 14 17 19 17 13 9 6 5 5 3 1 2 3 3 1 1 0 0 0 0 0 0 0 0 0 0 0 0 1 2 5 6 6
19 21 28 32 30 26 21 16 13 11 13 16 18 18 13 8 4 4 4 2 1 3 4 3 3 1 0 0 0 0 0 0 0 0 0 0 0 0 0 1 3 4 4
17 22 27 30 28 23 19 15 12 10 13 16 17 16 13 8 5 2 2 2 2 2 2 2 2 2 0 0 0 0 0 0 0 0 0 0 0 0 0 0 1 1 1
20 24 27 28 27 22 17 15 11 11 14 16 14 13 11 9 5 2 1 1 1 1 1 1 1 1 0 0 0 0 0 0 0 0 0 0 0 0 0 0 0 0 0

GEFSSE_con_prob3kmehi_138.txt.gz
EHI
12 14 21 25 23 20 16 12 7 5 4 3 3 3 2 1 2 2 1 0 0 0 0 0 0 0 0 0 0 0 0 0 0 0 0 0 0 0 0 0 0 0 0
20 20 26 29 25 21 18 12 6 4 3 2 2 1 1 2 2 2 1 0 0 0 0 0 0 0 0 0 0 0 0 0 0 0 0 0 0 0 0 0 0 0 0
33 29 31 35 30 24 19 11 5 3 2 1 0 0 1 2 2 1 0 0 0 0 0 0 0 0 0 0 0 0 0 0 0 0 0 0 0 0 0 0 0 0 0
43 37 35 40 36 25 17 10 5 3 1 0 0 0 0 1 1 0 0 0 0 0 0 0 0 0 0 0 0 0 0 0 0 0 0 0 0 0 0 0 0 0 0
50 44 42 45 40 27 17 11 6 3 1 0 0 0 0 0 0 0 0 0 0 0 0 0 0 0 0 0 0 0 0 0 0 0 0 0 0 0 0 0 0 0 0
56 52 49 48 42 29 19 13 7 3 1 0 0 0 0 0 0 0 0 0 0 0 0 0 0 0 0 0 0 0 0 1 0 0 0 0 0 0 0 0 0 0 0
60 55 51 47 40 29 20 14 9 3 0 0 0 0 0 0 0 0 0 0 0 0 0 0 0 0 0 1 1 0 1 1 0 0 0 0 0 0 0 0 0 0 0
59 54 46 40 33 26 20 16 11 4 1 0 0 0 0 0 0 0 0 0 0 0 0 0 0 0 1 2 2 1 1 0 0 0 0 0 0 0 0 0 0 0 0
53 49 41 32 27 23 19 15 10 4 1 1 1 1 0 0 0 0 0 0 0 0 0 0 0 1 2 4 4 3 2 1 0 0 0 0 0 0 0 0 0 0 0
49 46 39 31 25 20 16 12 8 3 1 2 2 1 0 0 0 0 0 0 0 0 0 0 0 1 3 5 6 6 3 1 0 0 0 0 0 0 0 0 0 0 0
47 42 35 30 25 19 13 9 6 3 2 2 2 1 0 0 0 0 0 0 0 0 0 0 1 1 3 5 6 6 3 0 0 0 0 0 1 1 0 0 0 0 0
45 38 29 25 21 15 11 8 6 5 3 2 1 0 0 0 0 0 0 0 0 0 0 0 1 2 2 2 2 2 1 0 0 0 0 1 2 2 1 0 0 0 0
46 38 26 20 16 12 10 9 7 5 3 1 0 0 0 0 0 0 0 0 0 0 0 0 1 1 1 1 0 0 0 0 0 0 1 3 4 4 3 1 0 0 0
43 35 26 18 13 10 9 9 7 4 1 0 0 0 0 0 0 0 0 0 0 0 0 0 0 0 1 2 1 0 0 0 0 0 1 3 3 3 3 2 1 0 0
39 33 25 18 12 9 9 8 5 2 0 0 0 0 0 0 0 0 0 0 0 0 0 0 0 0 1 1 1 0 0 0 0 0 1 2 1 1 1 1 1 0 0
41 36 29 21 15 10 9 8 5 2 1 0 0 0 0 0 0 0 0 0 0 0 0 0 0 0 0 0 0 0 0 0 0 0 0 0 0 0 0 0 0 0 0
42 39 32 25 18 12 10 9 6 3 2 1 1 2 1 1 1 1 1 0 0 0 0 0 0 0 0 0 0 0 0 0 0 0 0 0 0 0 0 0 0 0 0
42 39 32 25 20 16 13 10 7 5 4 3 3 3 2 2 3 3 2 0 0 0 0 0 0 0 0 0 0 0 0 0 0 0 0 0 0 0 0 0 0 0 0
39 36 30 24 21 18 14 11 8 6 5 4 3 2 2 3 4 4 2 0 0 0 0 0 0 0 0 0 0 0 0 0 0 0 0 0 0 0 0 0 1 0 0
33 33 30 24 21 18 14 11 9 7 6 4 2 1 2 3 4 3 1 0 0 0 0 0 0 0 0 0 0 0 0 0 0 0 0 0 0 0 0 0 0 0 0
29 30 28 23 20 18 14 11 9 7 6 4 2 2 2 3 3 2 0 0 0 0 0 0 0 0 0 0 0 0 0 0 0 0 0 0 0 0 0 0 0 0 0
28 27 24 20 18 16 13 9 8 8 6 5 3 3 3 2 1 1 0 0 0 0 0 0 0 0 0 0 0 0 0 0 0 0 0 0 0 0 0 0 0 0 0
25 23 20 17 15 13 10 8 9 9 8 6 4 3 3 2 1 0 0 0 0 0 0 0 0 0 0 0 0 0 0 0 0 0 0 0 0 0 0 0 0 0 0
20 17 15 14 12 10 8 7 8 9 7 5 3 3 3 2 1 0 0 0 0 0 0 0 0 0 0 0 0 0 0 0 0 0 0 0 0 0 0 0 0 0 0
13 11 10 11 10 7 5 6 6 6 4 2 2 2 2 1 0 0 0 0 0 0 0 0 0 0 0 0 0 0 0 0 0 0 0 0 0 0 0 0 0 0 0
8 8 8 9 9 6 4 5 5 3 1 1 1 1 1 0 0 0 0 0 0 0 0 0 0 0 0 0 0 0 0 0 0 0 0 0 0 0 0 0 0 0 0

GEFSSE_con_prob3kmehi_144.txt.gz
EHI
7 7 10 14 18 21 23 23 20 15 14 13 9 6 5 3 1 0 0 0 0 0 0 0 0 0 0 0 0 0 0 0 0 0 0 0 0 0 0 0 0 0 0
13 11 13 17 20 21 22 21 18 15 14 12 8 5 4 2 0 0 0 0 0 0 0 0 0 0 0 0 0 0 0 0 0 0 0 0 0 0 0 0 0 0 0
22 15 15 22 24 24 23 20 16 14 13 11 7 4 3 1 0 0 0 0 0 0 0 0 0 0 0 0 0 0 0 0 0 0 0 0 0 0 0 0 0 0 0
27 18 17 25 29 28 25 20 16 14 13 9 5 2 2 1 0 0 0 0 0 0 0 0 0 0 0 0 0 0 0 0 0 0 0 0 0 0 0 0 0 0 0
28 20 19 28 32 30 26 21 16 13 11 8 4 2 1 1 0 0 0 0 0 0 0 0 0 0 0 0 0 0 0 0 0 0 0 0 0 0 0 0 0 0 0
26 21 22 30 33 28 25 21 15 11 9 6 3 1 0 0 0 0 0 0 0 0 0 0 0 0 0 0 0 0 0 0 0 0 0 0 0 0 0 0 0 0 0
27 24 25 32 34 29 24 20 15 9 6 4 2 1 0 0 0 0 0 0 0 0 0 0 0 0 0 0 0 0 0 0 0 0 0 0 0 0 0 0 0 0 0
32 29 27 31 32 27 22 17 12 8 4 2 1 0 0 0 0 0 0 0 0 0 0 0 0 0 0 0 0 0 0 0 0 0 0 0 0 0 0 0 0 0 0
36 32 28 26 25 21 16 12 9 6 3 1 1 1 0 0 0 0 0 0 0 0 0 0 0 0 0 0 0 0 0 0 0 0 0 0 0 0 0 0 0 0 0
34 31 26 23 22 17 11 8 7 6 4 2 2 2 1 0 0 0 0 0 0 0 0 0 0 0 0 0 0 1 0 0 0 0 0 0 0 0 0 0 0 0 0
32 28 24 23 22 17 11 8 7 6 5 4 4 2 1 0 0 0 0 0 0 0 0 0 0 0 0 0 0 0 0 0 0 0 0 0 0 1 0 0 0 0 0
31 26 22 21 20 17 13 11 9 7 6 5 4 3 1 0 0 0 0 0 0 0 0 0 0 0 0 0 0 0 0 0 0 0 0 0 0 0 0 0 0 0 0
28 25 21 20 19 17 15 12 9 6 5 4 3 2 1 0 0 0 0 0 0 0 0 0 0 0 0 0 0 0 0 0 0 0 0 0 0 0 0 0 0 0 0
26 24 22 21 19 16 14 12 7 4 3 3 2 1 1 0 0 0 0 0 0 0 0 0 0 0 0 0 0 0 0 0 0 0 0 0 0 0 0 0 0 0 0
27 25 23 22 19 16 14 11 7 3 3 2 1 0 0 0 0 0 0 0 0 0 0 0 0 0 0 0 0 0 0 0 0 0 0 0 0 0 0 0 0 0 0
28 24 22 22 19 16 14 11 7 4 2 2 2 1 0 0 0 0 0 0 0 0 0 0 0 0 0 0 0 0 0 0 0 0 0 0 0 0 0 0 0 0 0
26 24 21 20 17 14 12 10 7 3 1 1 1 1 0 0 0 0 0 0 0 0 0 0 0 0 0 0 0 0 0 0 0 0 0 0 0 0 0 0 0 0 0
24 22 20 18 14 11 9 7 5 3 1 1 1 0 0 0 0 0 0 0 0 0 0 0 0 0 0 0 0 0 0 0 0 0 0 0 0 0 0 0 0 0 0
22 19 15 13 11 9 8 5 3 2 2 2 1 0 0 0 0 0 0 0 0 0 0 0 0 0 0 0 0 0 0 0 0 0 0 0 0 0 0 0 0 0 0
19 15 11 9 8 8 7 4 1 1 1 2 2 1 0 0 0 0 0 0 0 0 0 0 0 0 0 0 0 0 0 0 0 0 0 0 0 0 0 0 0 0 0
18 14 9 7 6 6 6 3 2 1 1 2 2 1 0 0 0 0 0 0 0 0 0 0 0 0 0 0 0 0 0 0 0 0 0 0 0 0 0 0 0 0 0
16 14 9 6 5 6 5 4 4 3 1 1 2 1 0 0 0 0 0 0 0 0 0 0 0 0 0 0 0 0 0 0 0 0 0 0 0 0 0 0 0 0 0
16 14 10 6 4 5 4 4 5 4 2 1 1 0 0 0 0 0 0 0 0 0 0 0 0 0 0 0 0 0 0 0 0 0 0 0 0 0 0 0 0 0 0
16 14 10 6 5 4 4 3 4 4 2 1 0 0 0 0 0 0 0 0 0 0 0 0 0 0 0 0 0 0 0 0 0 0 0 0 0 0 0 0 0 0 0
14 12 9 7 6 5 4 3 3 3 3 1 0 0 0 0 0 0 0 0 0 0 0 0 0 0 0 0 0 0 0 0 0 0 0 0 0 0 0 0 0 0 0
13 11 8 6 6 5 4 3 3 3 3 2 1 0 0 0 0 0 0 0 0 0 0 0 0 0 0 0 0 0 0 0 0 0 0 0 0 0 0 0 0 0 0

GEFSSE_con_prob3kmehi_150.txt.gz
EHI
9 10 9 7 5 4 7 10 10 9 8 6 4 2 1 0 0 0 0 0 0 0 0 0 0 0 0 0 0 0 0 0 0 0 0 0 0 0 0 0 0 0 0
14 14 11 7 7 7 8 10 10 9 9 8 6 4 1 0 0 0 0 0 0 0 0 0 0 0 0 0 0 0 0 0 0 0 0 0 0 0 0 0 0 0 0
20 18 11 8 9 9 9 10 9 9 9 8 7 5 2 1 0 0 0 0 0 0 0 0 0 0 0 0 0 0 0 0 0 0 0 0 0 0 0 0 0 0 0
20 16 11 9 10 10 9 9 8 8 8 7 6 5 3 1 0 0 0 0 0 0 0 0 0 0 0 0 0 0 0 0 0 0 0 0 0 0 0 0 0 0 0
14 14 14 12 10 10 8 8 7 7 6 6 5 4 2 1 0 0 0 0 0 0 0 0 0 0 0 0 0 0 0 0 0 0 0 0 0 0 0 0 0 0 0
9 10 13 12 9 9 9 7 6 5 4 4 4 3 1 0 0 0 0 0 0 0 0 0 0 0 0 0 0 0 0 0 0 0 0 0 0 0 0 0 0 0 0
6 8 12 12 10 9 8 7 4 3 3 3 3 2 1 0 0 0 0 0 0 0 0 0 0 0 0 0 0 0 0 0 0 0 0 0 0 0 0 0 0 0 0
5 8 12 13 11 10 8 6 4 3 3 3 2 1 0 0 0 0 0 0 0 0 0 0 0 0 0 0 0 0 0 0 0 0 0 0 0 0 0 0 0 0 0
5 7 11 12 11 10 8 7 5 4 3 2 1 0 0 0 0 0 0 0 0 0 0 0 0 0 0 0 0 0 0 0 0 0 0 0 0 0 0 0 0 0 0
7 7 9 10 10 9 8 7 5 3 1 1 1 1 0 0 0 0 0 0 0 0 0 0 0 0 0 0 0 0 0 0 0 0 0 0 0 0 0 0 0 0 0
16 11 9 10 10 8 6 6 5 2 0 0 1 1 0 0 0 0 0 0 0 0 0 0 0 0 0 0 0 0 0 0 0 0 0 0 0 0 0 0 0 0 0
28 19 12 12 10 7 5 5 5 4 2 1 1 1 0 0 0 0 0 0 0 0 0 0 0 0 0 0 0 0 0 0 0 0 0 0 0 0 0 0 0 0 0
33 23 15 13 12 8 5 6 7 8 6 4 3 1 0 1 1 1 0 0 0 0 0 0 0 0 0 0 0 0 0 0 0 0 0 0 0 0 0 0 0 0 0
31 23 15 15 16 14 10 8 8 8 8 7 5 2 1 2 2 1 1 0 0 0 0 0 0 0 0 0 0 0 0 0 0 0 1 1 0 0 0 0 0 0 0
29 25 20 19 20 20 17 12 8 7 7 8 6 2 2 3 3 2 1 0 0 0 0 0 0 0 0 0 0 0 0 0 0 0 1 1 0 0 0 0 0 0 0
28 29 26 24 23 22 19 15 10 8 8 7 5 3 2 2 3 2 2 1 0 0 0 0 0 0 0 0 0 0 0 0 0 0 0 0 0 0 0 0 0 0 0
28 28 26 22 21 21 18 16 13 10 8 7 6 5 3 2 2 2 2 1 0 0 0 0 0 0 0 0 0 0 0 0 0 0 0 0 0 0 0 0 0 0 0
25 25 22 17 17 20 21 19 15 11 8 8 7 5 3 1 1 1 2 2 1 0 0 0 0 0 0 0 0 0 0 0 0 0 0 1 1 1 0 0 0 0 0
25 24 21 17 16 19 23 23 19 14 10 9 8 6 4 2 1 1 2 2 1 1 0 0 0 1 0 0 0 0 0 0 0 0 0 1 1 1 0 0 1 0 0
25 25 24 21 19 21 24 24 20 15 11 9 9 9 6 4 1 1 1 1 0 0 0 0 0 0 0 0 0 0 0 0 1 1 1 0 0 0 0 0 0 0 0
26 27 27 25 23 24 25 23 17 12 9 8 9 10 8 4 2 0 0 0 0 0 0 0 0 0 0 0 0 0 0 0 1 1 1 0 0 0 0 0 0 0 0
31 30 28 26 24 23 23 20 16 12 9 8 9 10 8 5 3 1 0 0 0 0 0 0 0 0 0 0 0 0 0 0 0 0 0 0 0 0 0 0 0 0 0
33 30 26 24 22 20 18 17 15 12 9 9 11 11 8 6 4 2 1 0 0 0 1 0 0 0 0 0 0 0 0 0 0 0 0 0 0 0 0 0 0 0 0
28 26 24 23 20 17 15 13 12 10 9 10 12 11 8 6 5 4 3 1 0 0 0 0 0 0 0 0 0 0 0 0 0 0 0 0 0 0 0 0 0 0 0
24 23 21 21 19 17 14 12 10 9 10 11 11 10 9 7 5 4 3 2 1 0 0 0 0 0 0 0 0 0 0 0 0 0 0 0 0 0 0 0 0 0 0
22 20 18 19 20 18 14 12 11 10 9 10 9 9 9 8 5 3 2 2 1 0 1 1 1 0 0 0 0 0 0 0 0 0 0 0 0 0 0 0 0 0 0

GEFSSE_con_prob3kmehi_156.txt.gz
EHI
42 39 37 25 9 3 1 0 0 0 0 0 0 0 0 0 0 0 0 0 0 0 0 0 0 0 0 0 0 0 0 0 0 0 0 0 0 0 0 0 0 0 0
47 43 41 30 13 4 2 1 0 0 0 0 0 0 0 0 0 0 0 0 0 0 0 0 0 0 0 0 0 0 0 0 0 0 0 0 0 0 0 0 0 0 0
50 41 37 32 17 6 3 2 1 0 0 0 0 0 0 0 0 0 0 0 0 0 0 0 0 0 0 0 0 0 0 0 0 0 0 0 0 0 0 0 0 0 0
42 35 33 31 19 8 4 3 1 1 0 0 0 0 0 0 0 0 0 0 0 0 0 0 0 0 0 0 0 0 0 0 0 0 0 0 0 0 0 0 0 0 0
35 35 37 32 20 10 6 4 3 2 1 0 0 0 0 0 0 0 0 0 0 0 0 0 0 0 0 0 0 0 0 0 0 0 0 0 0 0 0 0 0 0 0
40 41 41 35 23 11 7 5 4 4 2 1 1 1 0 0 0 0 0 0 0 0 0 0 0 0 0 0 0 0 0 1 1 1 1 0 0 0 0 0 0 0 0
51 45 41 37 25 13 7 5 5 6 5 3 2 1 0 0 0 0 0 0 0 0 0 0 0 0 0 0 0 0 2 3 3 2 2 1 0 0 0 0 0 0 0
58 48 39 34 23 13 8 5 5 5 5 4 2 1 0 0 0 0 0 0 0 0 0 0 0 0 0 0 0 1 4 4 2 1 2 1 1 1 1 0 0 0 0
59 47 34 25 17 11 8 6 4 4 4 2 1 0 0 0 0 1 1 1 0 0 0 0 0 0 0 0 1 2 4 4 1 0 0 1 2 2 1 0 0 0 0
57 43 27 19 14 9 7 6 4 3 2 1 0 0 0 0 0 1 2 2 1 0 0 0 0 0 0 0 1 2 3 2 1 0 0 1 2 3 1 0 0 0 0
58 42 26 20 14 9 7 6 4 2 1 0 0 0 0 0 0 1 3 4 2 1 0 0 0 0 0 0 0 1 2 2 1 1 1 1 3 3 2 1 0 0 0
65 48 31 22 14 10 9 8 5 3 2 1 1 0 0 0 0 1 3 4 2 1 0 0 0 0 0 0 0 1 2 1 2 2 2 2 3 3 2 1 1 1 1
68 55 39 27 20 17 15 11 8 6 4 2 2 1 0 0 1 2 2 2 1 0 0 1 1 0 0 0 0 0 1 1 2 3 2 2 3 2 1 1 1 2 2
66 58 48 39 34 35 27 16 11 9 5 5 6 4 1 1 2 3 3 1 0 0 1 2 2 1 0 0 0 0 1 1 1 1 1 1 1 1 1 1 1 2 3
66 63 61 57 55 57 47 29 19 15 12 13 13 8 4 5 6 7 7 4 3 3 4 3 2 1 1 1 1 1 1 1 1 1 0 0 1 0 1 1 1 2 2
66 68 71 72 72 71 60 42 30 25 25 25 21 13 8 10 14 14 9 6 6 8 9 5 2 2 2 2 1 1 1 1 1 2 2 1 1 1 2 3 3 2 1
68 70 71 71 73 72 61 47 37 33 32 33 30 20 12 14 19 16 8 5 7 11 12 6 2 2 1 1 1 1 1 2 2 4 4 3 1 1 3 5 4 2 1
71 72 67 64 66 67 60 51 43 38 36 37 35 26 16 15 17 12 8 8 8 10 9 6 3 2 1 0 0 1 1 1 2 4 5 4 3 2 3 4 3 2 1
73 71 66 64 66 67 61 57 54 48 43 40 37 29 20 17 15 12 11 13 10 8 7 6 5 4 2 1 0 1 1 1 1 3 4 4 3 3 3 2 2 2 2
74 72 69 68 71 70 64 61 59 53 47 42 39 34 25 21 17 14 15 16 12 8 7 6 6 5 3 1 0 1 1 1 2 3 3 2 2 3 4 4 3 2 2
77 76 73 70 70 70 67 62 57 53 48 44 43 39 31 25 20 16 17 18 14 11 8 7 5 3 1 0 0 1 1 2 3 3 3 2 1 1 4 5 3 1 1
77 75 72 68 66 67 64 58 54 53 49 44 44 41 33 27 23 18 18 18 15 14 11 8 5 3 1 0 0 1 1 1 1 2 2 3 2 1 3 4 4 2 1
70 67 65 65 64 62 58 51 47 48 45 40 41 38 31 27 24 20 20 18 15 14 13 10 6 3 1 0 0 0 0 0 0 0 1 2 2 1 2 3 3 2 1
59 58 60 63 62 58 51 43 39 38 36 36 37 36 31 28 25 23 20 19 14 12 13 11 7 4 1 0 0 0 0 0 0 0 0 1 1 1 1 1 1 1 1
52 52 56 61 60 55 48 41 37 35 35 36 37 38 36 31 26 21 19 18 14 12 15 14 8 4 1 1 1 1 0 0 0 0 0 0 0 0 0 0 0 1 2
50 49 52 58 59 55 48 41 37 37 38 38 39 41 39 32 25 19 17 17 14 14 17 16 9 3 1 2 2 2 1 0 0 0 0 0 0 0 0 0 0 1 1

GEFSSE_con_prob3kmehi_162.txt.gz
EHI
6 10 16 17 15 15 12 8 6 5 5 5 4 1 0 0 0 0 0 0 0 0 0 0 0 0 1 1 1 0 0 0 0 0 0 0 0 0 0 0 0 0 0
12 14 19 20 18 16 12 8 5 4 3 2 2 1 0 0 0 0 0 0 0 0 0 0 0 0 0 0 0 0 0 0 0 0 0 0 0 0 0 0 0 0 0
23 21 22 23 21 17 11 6 3 2 1 0 0 0 0 0 0 0 0 0 0 0 0 0 0 0 0 0 0 0 0 0 0 0 0 0 0 0 0 0 0 0 0
33 26 23 26 24 17 11 6 2 1 0 0 0 0 0 0 0 0 0 0 0 0 0 0 0 0 0 0 0 0 0 0 0 0 0 0 0 0 0 0 0 0 0
36 29 27 29 26 18 12 7 3 1 0 0 0 0 0 0 0 0 0 0 0 0 0 0 0 0 0 0 0 0 0 0 0 0 0 0 0 0 0 0 0 0 0
37 31 30 33 28 20 14 10 6 3 1 0 0 0 0 0 0 0 0 0 0 0 0 0 0 0 0 0 0 0 1 1 0 0 0 0 0 0 0 0 0 0 0
40 33 30 34 30 21 15 11 7 4 2 1 0 0 0 0 0 0 0 0 0 0 0 0 0 0 0 0 0 0 1 1 0 0 0 0 0 0 0 0 0 0 0
44 36 30 30 27 20 15 12 8 5 2 1 0 0 0 0 0 0 0 0 0 0 0 0 0 0 0 0 0 0 1 1 0 0 0 0 0 0 0 0 0 0 0
43 37 30 25 21 17 13 10 8 5 3 1 0 0 0 0 0 0 0 0 0 0 0 0 0 0 0 0 0 0 0 0 0 0 0 0 0 0 0 0 0 0 0
40 36 30 23 18 13 9 8 7 5 4 2 0 0 0 0 0 0 0 0 0 0 0 0 0 0 0 1 1 1 1 0 0 0 0 0 0 0 0 0 0 0 0
41 35 29 24 19 13 7 5 5 4 3 2 1 0 0 0 0 0 0 0 0 0 0 0 0 0 0 1 1 1 0 0 0 0 0 0 0 0 0 0 0 0 0
45 35 26 22 18 12 7 5 4 3 2 2 1 0 0 0 0 0 0 0 0 0 0 0 0 0 0 0 0 0 0 0 0 0 0 1 1 1 0 0 0 0 0
47 37 26 19 15 11 9 6 5 3 2 1 1 0 0 0 0 0 0 0 0 0 0 0 0 0 0 0 0 0 0 0 0 0 0 1 2 1 0 0 0 0 0
51 42 27 17 11 9 10 9 6 5 3 1 0 0 0 0 0 0 0 0 0 0 0 0 0 0 0 0 0 0 0 0 0 0 0 1 1 0 0 0 0 0 0
52 43 25 12 8 8 9 8 5 4 3 1 0 0 0 0 0 0 0 0 0 0 0 0 0 0 0 0 0 0 0 0 0 0 0 0 0 0 0 0 0 0 0
53 42 26 13 8 8 8 6 4 3 2 1 0 0 1 0 0 0 0 0 0 0 0 0 0 0 0 0 0 0 0 0 0 0 0 0 0 0 0 0 0 0 0
56 47 35 24 15 10 8 6 4 3 2 1 0 0 0 0 0 0 0 0 0 0 0 0 0 0 0 0 0 0 0 0 0 0 0 0 0 0 0 0 0 0 0
62 53 44 36 25 14 9 6 5 5 3 1 0 0 0 1 1 0 0 0 0 0 0 0 0 0 0 0 0 0 0 0 0 0 0 0 0 0 0 0 1 0 0
64 59 52 44 34 22 13 9 8 8 7 3 1 0 1 2 2 1 0 0 0 0 0 0 0 0 0 0 0 0 0 0 0 0 0 0 0 0 0 0 0 0 0
64 62 58 51 41 30 22 18 16 14 12 8 4 3 4 4 3 1 0 0 0 0 0 0 0 0 0 0 0 0 0 0 0 0 0 0 0 0 0 0 0 0 0
64 62 59 53 43 34 28 26 23 19 17 13 8 7 8 9 6 2 0 0 0 0 0 0 0 0 0 0 0 0 0 0 0 0 0 0 0 0 0 0 0 0 0
64 62 58 52 43 34 29 27 24 21 19 16 11 9 10 11 9 5 2 0 0 0 0 0 0 0 0 0 0 0 0 0 0 0 0 0 0 0 0 0 0 0 0
65 63 57 50 42 35 29 25 22 20 19 16 13 9 9 10 10 6 3 2 0 0 0 0 0 0 0 0 0 0 0 0 0 0 0 0 0 0 0 0 0 0 0
66 63 58 51 43 36 30 26 23 19 16 14 12 10 8 9 8 6 5 4 1 0 0 0 0 0 0 0 0 0 0 0 0 0 0 0 0 0 0 0 0 0 0
66 64 59 52 44 38 31 26 23 18 13 12 11 10 9 8 7 6 6 5 2 0 0 0 0 0 0 0 0 0 0 0 0 0 0 0 0 0 0 0 0 0 0
67 65 59 51 44 38 31 26 22 16 12 12 12 10 9 9 7 6 6 5 3 1 0 0 0 0 0 0 0 0 0 0 0 0 0 0 0 0 0 0 0 0 0

GEFSSE_con_prob3kmehi_168.txt.gz
EHI
1 1 3 5 7 13 19 21 20 18 16 12 7 2 0 0 0 0 0 0 0 0 0 0 0 0 0 1 1 1 0 0 0 0 0 0 0 0 0 0 0 0 0
3 3 4 6 8 11 16 18 18 16 12 8 4 1 0 0 0 0 0 0 0 0 0 0 0 0 0 0 0 0 0 0 0 0 0 0 0 0 0 0 0 0 0
7 5 5 7 10 11 13 15 15 12 9 5 3 1 0 0 0 0 0 0 0 0 0 0 0 0 0 0 0 0 0 0 0 0 0 0 0 0 0 0 0 0 0
9 6 5 9 13 13 13 14 12 10 6 3 2 1 0 0 0 0 0 0 0 0 0 0 0 0 0 0 0 0 0 0 0 0 0 0 0 0 0 0 0 0 0
9 7 6 10 13 14 14 13 11 8 5 2 1 0 0 0 0 0 0 0 0 0 0 0 0 0 0 0 0 0 0 0 0 0 0 0 0 0 0 0 0 0 0
7 6 7 11 15 16 14 12 9 6 3 1 0 0 0 0 0 0 0 0 0 0 0 0 0 0 0 0 0 0 0 0 0 0 0 0 0 0 0 0 0 0 0
8 7 9 14 17 16 13 10 8 5 3 1 0 0 0 0 0 0 0 0 0 0 0 0 0 0 0 0 0 0 0 0 0 0 0 0 0 0 0 0 0 0 0
12 10 10 14 16 13 9 6 6 5 4 2 1 0 0 0 0 0 0 0 0 0 0 0 0 0 0 0 0 0 0 0 0 0 0 0 0 0 0 0 0 0 0
18 14 10 10 11 9 5 4 4 5 4 2 1 0 0 0 0 0 0 0 0 0 0 0 0 0 0 0 0 0 0 0 0 0 0 0 0 0 0 0 0 0 0
19 15 11 10 9 6 4 3 3 4 3 1 0 0 0 0 0 0 0 0 0 0 0 0 0 0 0 0 0 0 0 0 0 0 0 0 0 0 0 0 0 0 0
19 14 11 12 11 8 5 4 3 3 3 1 0 0 0 0 0 0 0 0 1 1 1 0 0 0 0 0 0 0 0 0 0 0 0 0 0 0 0 0 0 0 0
19 15 11 11 11 10 8 6 5 4 4 3 1 0 0 0 0 0 0 0 1 2 1 0 0 0 0 0 0 0 0 0 0 0 0 0 0 0 0 0 0 0 0
20 17 13 10 10 10 10 9 7 5 4 3 1 0 0 0 0 0 0 0 0 1 1 0 0 0 0 0 0 0 0 0 0 0 0 0 0 0 0 0 0 0 0
21 20 16 11 9 9 9 9 8 5 3 1 1 1 0 0 0 0 0 0 0 0 0 0 0 0 0 0 0 0 0 0 0 0 0 0 0 0 0 0 0 0 0
21 21 17 12 9 7 6 6 5 3 1 0 0 0 0 0 0 0 0 0 0 0 0 0 0 0 0 0 0 0 0 0 0 0 0 0 0 0 0 0 0 0 0
21 21 16 11 8 6 4 3 2 1 0 0 0 0 0 0 0 0 0 0 0 0 0 0 0 0 0 0 0 1 0 0 0 0 0 0 0 0 0 0 0 0 0
22 21 17 11 7 5 3 2 1 0 0 0 0 0 0 0 0 0 0 0 0 0 0 0 0 0 0 0 0 0 0 0 0 0 0 0 0 0 0 0 0 0 0
24 21 16 9 5 4 3 3 1 0 0 0 0 0 0 0 0 0 0 0 0 0 0 0 0 0 0 0 0 0 0 0 0 0 0 0 0 0 0 0 0 0 0
23 21 15 8 4 3 3 3 2 0 0 0 0 0 0 0 0 0 0 0 0 0 0 0 0 0 0 0 0 0 0 0 0 0 0 0 0 0 0 0 0 0 0
22 19 14 9 4 3 3 2 1 0 0 0 0 0 0 0 0 0 0 0 0 0 0 0 0 0 0 0 0 0 0 0 0 0 0 0 0 0 0 0 0 0 0
23 19 15 10 6 3 3 3 2 1 0 0 0 0 0 0 0 0 0 0 0 0 0 0 0 0 0 0 0 0 0 0 0 0 0 0 0 0 0 0 0 0 0
31 25 17 10 6 4 3 3 3 2 1 0 0 0 0 1 1 1 0 0 0 0 0 0 0 0 0 0 0 0 0 0 0 0 0 0 0 0 0 0 0 0 0
41 33 21 12 8 6 5 5 5 4 2 1 0 0 0 1 2 2 1 0 0 0 0 0 0 0 0 0 0 0 0 0 0 0 0 0 0 0 0 0 0 0 0
44 38 27 18 13 9 8 9 9 7 4 2 1 0 0 1 2 3 2 1 0 0 0 0 0 0 0 0 0 0 0 0 0 0 0 0 0 0 0 0 0 0 0
44 40 33 25 19 14 11 11 12 10 6 4 3 1 0 1 2 3 3 2 1 1 0 0 0 0 0 0 0 0 0 0 0 0 0 0 0 0 0 0 0 0 0
44 42 37 30 24 18 13 11 12 11 7 6 4 2 1 1 1 2 3 3 2 2 1 0 0 0 0 0 0 0 0 0 0 0 0 0 0 0 0 0 0 0 0

GEFSSE_con_prob3kmehi_174.txt.gz
EHI
3 3 3 3 3 5 7 7 7 7 6 4 2 0 0 0 0 0 0 0 0 0 0 0 0 0 0 0 0 0 0 0 0 0 0 0 0 0 0 0 0 0 0
3 3 4 4 5 6 7 8 7 7 7 5 3 1 0 0 0 0 0 0 0 0 0 0 0 0 0 0 0 0 0 0 0 0 0 0 0 0 0 0 0 0 0
3 3 4 6 6 7 8 8 8 8 8 7 5 1 0 0 0 0 0 0 0 0 0 0 0 0 0 0 0 0 0 0 0 0 0 0 0 0 0 0 0 1 1
3 4 6 7 8 8 10 10 10 9 8 7 5 1 0 0 0 0 0 0 0 0 0 0 0 0 0 0 0 0 0 0 0 0 0 0 0 0 0 0 0 0 0
3 5 8 9 8 9 9 9 10 8 6 5 3 1 0 0 0 0 0 0 0 0 0 0 0 0 0 0 0 0 0 0 0 0 0 0 0 0 0 0 0 0 0
3 5 8 9 8 8 8 6 6 5 4 3 2 1 0 0 0 0 0 0 0 0 0 0 0 0 0 0 0 0 0 0 0 0 0 0 0 0 0 0 0 0 0
4 5 8 8 8 8 7 5 3 3 3 3 2 1 0 0 0 0 0 0 0 0 0 0 0 0 0 0 0 0 0 0 0 0 0 0 0 0 0 0 0 0 0
5 6 7 7 6 7 6 4 3 3 3 3 1 1 1 1 1 0 0 0 0 0 0 0 0 0 0 0 0 0 0 0 0 0 0 0 0 0 0 0 0 0 0
5 6 6 5 4 4 4 4 3 3 3 3 1 1 2 2 1 0 0 0 0 0 0 0 0 0 0 0 0 0 0 0 0 0 0 0 0 0 0 0 0 0 0
6 6 5 4 3 3 3 3 3 3 2 2 1 1 1 1 1 0 0 0 0 0 0 0 0 0 0 0 0 0 0 0 0 0 0 0 0 0 0 0 0 0 0
11 8 5 3 3 3 3 4 3 1 1 1 1 0 0 0 0 0 0 0 0 0 0 0 0 0 0 0 0 0 0 0 0 0 0 0 0 0 0 0 0 0 0
18 12 6 3 3 3 4 4 3 1 1 0 0 0 0 0 0 0 0 0 0 0 0 0 0 0 0 0 0 0 0 0 0 0 0 0 0 0 0 0 0 0 0
23 17 9 5 3 3 3 4 3 3 2 1 1 1 1 0 0 0 0 0 1 0 0 0 0 0 0 0 0 0 0 0 0 0 0 0 0 0 0 0 0 0 0
24 20 14 9 6 5 4 4 3 3 2 1 1 1 1 0 0 0 0 0 0 0 0 0 0 0 0 0 0 0 0 0 0 0 0 0 0 0 0 0 0 0 0
24 21 18 14 11 9 8 7 5 4 3 2 1 1 0 0 0 0 1 1 0 0 0 0 0 0 0 0 0 0 0 0 0 0 0 0 0 0 0 0 0 0 0
26 23 20 18 15 13 11 9 7 5 4 2 0 0 0 0 0 0 1 2 1 0 0 0 0 0 0 0 0 0 0 0 0 0 0 0 0 0 0 0 0 0 0
30 27 23 18 14 13 12 11 8 4 2 1 0 0 0 0 0 0 1 2 1 0 0 0 0 0 0 0 0 0 0 0 0 0 0 0 0 0 0 0 0 0 0
34 33 28 20 14 11 13 13 9 5 2 0 1 1 1 0 0 0 0 1 1 0 0 0 0 0 0 0 0 0 0 0 0 0 0 0 0 0 0 0 0 0 0
34 35 31 23 17 14 15 17 14 9 4 2 2 2 1 0 0 0 0 0 0 0 0 0 0 0 0 0 0 0 0 0 0 0 0 0 0 0 0 0 0 0 0
34 35 33 29 24 21 20 19 17 13 9 5 4 3 2 1 0 0 0 0 0 0 0 0 0 0 0 0 0 0 0 0 0 0 0 0 0 0 0 0 0 0 0
38 40 41 38 35 31 27 22 17 14 11 7 5 3 2 1 1 1 1 1 1 1 1 0 0 0 0 0 0 0 0 0 0 0 0 0 0 0 0 0 0 0 0
48 49 50 46 41 37 32 24 18 15 12 7 5 3 1 1 1 1 1 1 1 2 2 2 1 0 0 0 0 0 0 0 0 0 0 0 0 0 0 0 0 0 0
54 54 52 49 42 37 33 25 19 16 10 6 5 3 2 2 2 1 1 0 0 1 2 3 2 0 0 0 0 0 0 0 0 0 0 0 0 0 0 0 0 0 0
54 53 52 48 41 37 34 27 20 14 8 6 5 5 6 5 2 1 0 0 0 0 1 1 1 0 0 0 0 0 0 0 0 0 0 0 0 0 0 0 0 0 0
54 53 51 47 40 35 33 29 21 14 9 10 10 10 11 9 4 1 1 0 0 0 0 0 1 1 0 0 0 0 0 0 0 0 0 0 0 0 0 0 0 0 0
56 54 51 47 40 34 32 29 22 16 13 16 16 14 14 12 6 3 2 1 0 0 0 1 2 2 1 0 0 0 0 0 0 0 0 0 0 0 0 0 0 0 0

GEFSSE_con_prob3kmehi_180.txt.gz
EHI
15 13 12 9 5 6 6 5 4 3 4 5 5 5 4 3 3 3 3 3 3 3 4 4 2 1 1 2 3 3 3 3 3 3 3 3 3 3 3 3 3 3 3
17 15 13 9 6 5 4 4 3 3 3 4 4 4 3 3 3 3 3 3 3 3 3 3 3 2 2 3 3 3 3 3 3 3 3 3 3 3 3 3 3 3 3
16 13 11 9 6 4 3 3 3 3 3 3 3 3 3 3 3 3 3 3 3 3 3 3 3 3 3 3 3 3 2 3 3 3 3 2 2 3 3 3 3 3 3
12 9 9 9 6 3 3 3 3 4 3 3 3 3 3 3 3 3 3 3 3 3 3 3 3 3 3 3 3 1 1 1 2 3 3 2 2 3 3 3 3 3 3
9 8 8 9 7 4 3 3 4 5 4 3 3 3 3 3 3 3 3 3 3 3 3 3 3 3 3 3 3 1 0 1 2 3 3 3 3 3 3 3 3 3 3
9 8 9 10 8 5 3 4 5 5 4 3 3 3 3 3 3 3 3 3 3 3 3 3 3 3 3 3 3 2 2 3 3 2 3 3 3 3 3 3 3 3 3
15 11 10 11 9 6 4 5 6 5 4 3 3 3 4 3 3 3 3 3 3 3 3 3 3 3 3 3 3 3 4 5 3 2 3 3 3 3 3 3 3 3 3
24 16 12 11 9 7 5 5 5 4 3 3 4 4 4 4 3 3 3 3 3 3 3 3 3 3 3 3 3 3 5 5 4 3 3 3 3 3 3 3 3 3 3
30 20 12 10 8 6 5 4 4 4 4 4 5 5 4 3 3 3 3 3 3 3 3 3 3 3 3 3 3 3 5 6 4 3 3 3 3 3 3 3 3 3 2
31 21 12 9 8 6 4 3 3 4 4 5 4 4 3 3 3 3 3 3 3 3 3 3 3 3 3 3 3 4 5 4 3 3 3 4 5 4 4 3 3 2 1
33 24 15 12 8 7 6 4 3 3 4 4 3 3 3 3 3 3 4 4 3 3 3 3 3 3 3 3 3 4 4 2 1 2 4 7 7 5 4 3 2 2 1
38 29 21 15 10 8 7 5 4 3 3 3 3 3 3 3 3 4 4 4 4 3 3 3 3 3 2 2 2 3 3 2 1 1 4 8 8 5 3 2 1 1 0
42 36 29 21 13 10 8 6 5 4 3 3 3 3 3 3 3 4 4 4 4 4 3 3 3 3 2 1 2 2 2 2 1 1 3 6 7 5 3 2 1 0 0
45 42 38 31 22 19 15 10 7 6 5 5 4 3 3 3 4 5 4 3 4 4 4 3 4 4 4 3 3 3 3 2 2 1 1 3 5 5 4 3 2 1 0
51 51 50 44 38 35 29 18 13 13 12 10 6 5 5 5 6 7 5 4 3 4 3 3 3 4 5 4 4 5 4 3 3 1 1 3 5 6 5 4 3 1 1
58 60 61 57 53 50 38 25 20 22 23 18 13 10 8 9 11 10 6 4 4 4 4 4 3 4 4 5 5 5 5 4 3 3 2 3 4 5 4 3 3 3 2
65 69 68 62 59 54 40 27 22 25 28 29 25 18 15 16 16 12 8 5 5 6 5 4 3 4 4 5 5 6 5 4 4 5 4 3 3 3 3 3 3 3 3
75 77 73 64 60 55 44 33 28 30 37 41 36 26 22 23 18 12 11 9 7 5 3 2 3 3 4 4 5 7 7 5 4 5 5 4 3 3 3 3 4 4 4
85 83 76 70 65 59 52 45 40 42 47 49 44 36 32 27 18 12 14 13 9 5 3 3 4 4 4 4 5 7 7 6 5 5 5 6 7 5 4 4 4 4 4
89 85 80 78 74 66 57 51 48 49 52 51 49 49 43 30 17 13 15 16 13 9 6 5 5 5 5 4 5 5 6 7 9 8 7 8 9 7 6 5 5 4 3
91 88 85 83 80 71 59 52 52 54 51 48 50 55 47 29 18 14 16 19 18 16 11 8 7 6 4 4 4 4 4 7 10 11 10 9 8 7 6 7 9 7 5
93 92 90 87 83 75 63 56 58 59 51 44 49 53 43 28 20 17 20 22 21 19 15 11 10 7 5 4 4 4 4 5 7 9 11 10 9 9 8 9 13 12 8
94 93 91 88 84 77 69 62 61 61 52 47 51 52 42 31 24 23 26 26 21 19 18 17 13 9 6 6 6 5 4 4 4 6 8 11 12 10 8 9 12 12 9
92 90 88 87 85 80 74 67 64 60 54 52 55 54 47 38 32 32 34 33 26 22 21 19 16 12 9 7 7 6 5 4 2 2 5 8 10 10 8 6 7 8 8
89 87 85 86 85 81 76 71 66 59 55 55 58 58 54 48 41 40 42 41 36 30 26 23 20 16 12 9 7 7 7 5 3 1 2 3 5 7 9 8 7 8 9
86 84 84 85 84 81 76 71 66 59 56 57 60 60 57 53 49 44 44 47 44 37 32 28 23 19 14 9 7 8 7 6 4 2 1 1 2 6 11 11 10 10 10

GEFSSE_con_prob3kmehi_186.txt.gz
EHI
0 1 3 6 6 5 4 3 3 3 1 0 0 0 0 0 0 0 0 0 0 0 0 1 2 2 1 0 0 0 0 0 0 0 0 1 2 3 3 3 3 3 3
1 2 4 6 6 4 3 3 3 2 1 0 0 0 0 0 0 0 0 0 0 0 0 1 2 1 0 0 0 0 0 0 0 0 0 1 2 3 3 3 2 2 2
4 3 3 5 4 3 2 2 1 1 1 0 0 0 0 0 0 0 0 0 0 0 1 2 1 0 0 0 0 0 0 0 0 0 0 1 1 2 2 2 1 0 1
6 3 2 3 2 1 0 1 1 2 2 1 0 0 0 0 0 0 0 0 0 1 2 2 1 0 0 0 0 0 0 0 0 0 0 0 0 1 1 1 0 0 0
4 2 1 2 2 0 0 1 2 3 2 1 0 0 0 0 0 0 0 0 0 1 2 2 1 0 0 0 0 0 0 0 0 0 0 0 0 0 0 0 0 0 0
6 4 4 4 2 1 0 1 2 2 2 1 0 0 0 0 0 0 0 0 0 0 1 1 0 0 0 0 0 0 0 0 0 0 0 0 0 0 0 0 0 0 0
11 8 7 7 4 1 0 0 1 1 1 0 0 0 0 0 0 0 0 0 0 0 0 0 0 0 0 0 0 1 1 1 0 0 0 0 0 0 0 0 0 0 0
15 11 7 7 5 1 0 0 0 0 0 0 0 0 0 0 0 0 0 0 0 0 0 0 0 1 1 0 1 2 2 1 0 0 0 0 0 0 0 0 0 0 0
12 9 5 3 2 0 0 0 0 0 0 0 0 0 0 0 0 0 0 0 0 0 0 0 0 1 1 0 1 2 2 1 0 0 0 0 0 0 0 0 0 0 0
7 6 4 3 1 0 0 0 0 0 0 0 0 0 0 0 0 0 0 0 0 0 0 0 0 1 1 0 1 2 2 1 0 0 0 0 0 0 0 0 0 0 0
6 6 5 4 2 1 0 0 0 0 0 0 0 0 0 0 0 0 0 0 0 0 0 0 0 0 0 0 1 1 1 0 0 0 0 0 0 0 0 0 0 0 0
10 8 6 4 2 1 0 0 0 0 0 0 0 0 0 0 0 0 0 0 0 0 0 0 0 0 0 0 0 0 0 0 0 0 0 1 0 0 0 0 0 0 0
12 10 6 4 2 1 0 0 0 0 0 0 0 0 0 0 0 0 0 0 0 0 0 0 0 0 0 0 0 0 0 0 0 0 0 1 1 0 0 0 0 0 0
14 11 7 5 3 1 0 0 0 0 0 0 0 0 0 0 0 0 0 0 0 0 0 0 0 0 0 0 0 0 0 0 0 0 0 1 1 1 0 0 0 0 0
24 18 11 7 4 2 1 1 0 0 0 0 0 0 0 0 0 0 0 0 0 0 0 0 0 0 0 0 0 0 0 0 0 0 0 1 1 1 0 0 0 0 0
40 32 20 11 6 4 2 1 1 0 0 0 0 0 0 0 0 0 0 0 0 0 0 0 0 0 0 0 0 0 0 0 0 0 0 0 0 0 0 0 0 0 0
53 44 32 21 13 8 4 3 3 2 1 0 0 0 0 0 0 0 0 0 0 0 0 0 0 0 0 0 0 0 0 0 0 0 0 0 0 0 0 1 0 0 0
59 52 42 35 26 17 11 8 7 6 4 2 0 0 0 0 0 0 0 0 0 0 0 0 0 0 0 0 0 0 0 0 0 0 0 0 0 0 0 0 0 0 0
64 59 54 48 41 31 24 19 14 10 7 5 2 0 0 0 0 0 0 0 0 0 0 0 0 0 0 0 0 0 0 0 0 0 0 0 0 0 0 0 0 0 1
68 67 63 58 52 45 38 32 24 15 9 7 5 2 1 1 1 1 0 0 0 0 0 0 0 0 0 0 0 0 0 0 0 0 0 0 0 0 0 0 0 1 2
75 75 70 64 59 54 48 42 34 22 12 8 6 5 3 2 2 1 0 0 0 0 0 0 0 0 0 0 0 0 0 0 0 0 0 0 0 0 0 0 0 0 1
81 81 77 70 64 59 52 45 35 24 14 9 7 6 5 4 4 3 1 0 0 0 0 0 0 0 0 0 0 0 0 0 0 0 0 0 0 0 0 0 0 0 0
81 83 81 75 68 61 52 42 34 25 19 13 9 8 7 6 6 5 2 0 0 0 0 0 0 0 0 0 0 0 0 0 0 0 0 0 1 0 0 0 1 1 1
79 80 79 76 69 61 51 42 35 29 23 17 13 11 9 7 7 7 3 1 0 0 0 0 0 0 0 0 0 0 0 0 0 0 0 0 0 0 0 0 1 3 3
75 74 74 74 70 60 50 42 36 30 23 18 16 15 12 8 7 6 4 2 1 0 0 0 0 0 0 0 0 0 0 0 0 0 0 0 0 0 0 0 1 2 3
72 71 71 73 70 61 51 42 36 29 20 16 19 20 14 8 6 6 5 3 1 1 1 0 0 0 0 0 0 0 0 0 0 0 0 0 0 0 0 0 0 1 1

GEFSSE_con_prob3kmehi_192.txt.gz
EHI
0 0 0 0 0 0 0 0 0 0 0 0 0 0 0 0 0 0 0 0 0 0 0 1 2 3 3 3 3 3 2 1 0 0 0 0 0 0 0 0 0 0 0
0 0 0 0 0 0 0 0 0 0 0 0 0 0 0 0 0 0 0 0 0 0 0 1 2 3 2 2 2 2 1 0 0 0 0 0 0 0 0 0 0 0 0
0 0 0 0 0 0 0 0 0 0 0 0 0 0 0 0 0 0 0 0 0 0 0 0 1 2 1 0 1 1 0 0 0 0 0 0 0 0 0 0 0 0 0
0 0 0 0 0 0 0 0 0 0 0 0 0 0 0 0 0 0 0 0 0 0 0 0 0 0 0 0 0 0 0 0 0 0 0 0 0 0 0 0 0 0 0
0 0 0 0 0 0 0 0 0 0 0 0 0 0 0 0 0 0 0 0 0 0 0 0 0 0 0 0 0 0 0 0 0 0 0 0 0 0 0 0 0 0 0
0 0 1 1 1 0 0 0 0 0 0 0 0 0 0 0 0 0 0 0 0 0 0 1 1 1 0 0 0 0 0 0 0 0 0 0 0 0 0 0 0 0 0
1 0 1 2 2 0 0 0 0 0 0 0 0 0 0 0 0 0 0 0 0 0 0 1 2 2 1 0 0 0 0 0 0 0 0 0 0 0 0 0 0 0 0
2 1 1 1 1 0 0 0 0 0 0 0 0 0 0 0 0 0 0 0 0 0 0 0 1 2 2 0 0 0 0 0 0 0 0 0 0 0 0 0 0 0 0
3 2 1 1 0 0 0 0 0 0 0 0 0 0 0 0 0 0 0 0 0 0 0 0 1 1 1 0 0 0 0 0 0 0 0 0 0 0 0 0 0 0 0
2 2 2 1 0 0 0 0 0 0 0 0 0 0 0 0 0 0 0 0 0 0 0 0 1 1 0 1 1 1 0 0 0 0 0 0 0 0 0 0 0 0 0
2 2 3 2 1 0 0 0 0 0 0 0 0 0 0 0 0 0 0 0 0 0 0 1 1 1 0 1 2 1 0 0 0 0 0 0 0 0 0 0 0 0 0
4 4 4 2 1 0 0 0 0 0 0 0 0 0 0 0 0 0 0 0 0 0 0 1 1 1 0 0 1 1 0 0 0 0 0 0 0 0 0 0 0 0 0
5 6 4 2 1 0 0 0 0 0 0 0 0 0 0 0 0 0 0 0 0 0 0 0 0 0 0 0 0 0 0 0 0 0 0 0 0 0 0 0 0 0 0
4 5 3 1 1 0 0 0 0 0 0 0 0 0 0 0 0 0 0 0 0 0 0 0 0 0 0 0 0 0 0 0 0 0 0 0 0 0 0 0 0 0 0
4 3 1 1 1 0 0 0 0 0 0 0 0 0 0 0 0 0 0 0 0 0 0 0 0 0 0 0 0 0 0 0 0 0 0 0 0 0 0 0 0 0 0
4 3 1 0 0 0 0 0 0 0 0 0 0 0 0 0 0 0 0 0 0 0 0 0 0 0 0 0 0 0 0 0 0 0 0 0 0 0 0 0 0 0 0
5 4 2 1 0 0 0 0 0 0 0 0 0 0 0 0 0 0 0 0 0 0 0 0 0 0 0 0 0 0 0 0 0 0 0 0 0 0 0 0 0 0 0
5 4 3 2 1 0 0 0 0 0 0 0 0 0 0 0 0 0 0 0 0 0 0 0 0 0 0 0 0 0 0 0 0 0 0 0 0 0 0 0 0 0 0
6 6 5 3 2 1 1 0 0 0 0 0 0 0 0 0 0 0 0 0 0 0 0 0 0 0 0 0 0 0 0 0 0 0 0 0 0 0 0 0 0 0 0
13 12 9 6 4 3 2 1 1 0 0 0 0 0 0 0 0 0 0 0 0 0 0 0 0 0 0 0 0 0 0 0 0 0 0 0 0 0 0 0 0 0 0
26 24 19 13 9 6 4 3 2 1 0 0 0 0 0 0 0 0 0 0 0 0 0 0 0 0 0 0 0 0 0 0 0 0 0 0 0 0 0 0 0 0 0
39 37 31 24 18 11 6 4 2 1 0 0 0 0 0 0 0 0 0 0 0 0 0 0 0 0 0 0 0 0 0 0 0 0 0 0 0 0 0 0 0 0 0
49 45 38 32 26 18 12 9 6 4 3 2 1 0 0 0 0 0 0 0 0 0 0 0 0 0 0 0 0 0 0 0 0 0 0 0 0 0 0 0 0 0 0
53 49 41 35 31 26 22 20 16 12 9 5 3 1 0 0 0 0 0 0 0 0 0 0 0 0 0 0 0 0 0 0 0 0 0 0 0 0 0 0 0 0 0
55 52 44 38 35 33 31 29 26 21 14 8 6 3 1 1 1 2 1 0 0 0 0 0 0 0 0 0 0 0 0 0 0 0 0 0 0 0 0 0 0 0 0
57 52 45 42 40 37 35 34 31 24 16 10 8 5 2 2 2 3 2 1 0 0 0 0 0 0 0 0 0 0 0 0 0 0 0 0 0 0 0 0 0 0 0

GEFSSE_con_prob3kmehi_198.txt.gz
EHI
0 0 0 0 0 0 1 2 3 3 2 1 0 0 0 0 0 0 0 0 0 0 0 1 2 2 2 1 0 0 0 0 0 0 0 0 0 0 0 0 0 0 0
0 0 0 0 0 0 1 2 3 3 2 1 0 0 0 0 0 0 0 0 0 0 0 1 1 1 1 0 0 0 0 0 0 0 0 0 0 0 0 0 0 0 0
0 0 0 0 0 0 0 1 2 1 1 0 0 0 0 0 0 0 0 0 0 0 0 0 0 0 0 0 0 0 0 0 0 0 0 0 0 0 0 0 0 0 0
0 0 0 0 0 0 0 0 0 0 0 0 0 0 0 0 0 0 0 0 0 0 0 0 0 0 0 0 0 0 0 0 0 0 0 0 0 0 0 0 0 0 0
0 0 0 0 0 0 0 0 0 0 0 0 0 0 0 0 0 0 0 0 0 0 0 0 0 0 0 0 0 0 0 0 0 0 0 0 0 0 0 0 0 0 0
0 0 0 0 0 0 0 0 0 0 0 0 0 0 0 0 0 0 0 0 0 0 0 0 0 0 0 0 0 0 0 0 0 0 0 0 0 0 0 0 0 0 0
0 0 0 0 0 0 0 0 0 0 0 0 0 0 0 0 0 0 0 0 0 0 0 0 0 0 0 0 0 0 0 0 0 0 0 0 0 0 0 0 0 0 0
0 0 0 0 0 0 0 0 0 0 0 0 0 0 0 0 0 0 0 0 0 0 0 0 0 0 0 0 0 0 0 0 0 0 0 0 0 0 0 0 0 0 0
0 0 0 0 0 0 0 0 0 0 0 0 0 0 0 0 0 0 0 0 0 0 0 0 0 0 0 0 0 0 0 0 0 0 0 0 0 0 0 0 0 0 0
0 0 0 0 0 0 0 0 0 0 0 0 0 0 0 0 0 0 0 0 0 0 0 0 0 1 1 1 0 0 0 0 0 0 0 0 0 0 0 0 0 0 0
1 1 2 1 0 0 0 0 0 0 0 0 0 0 0 0 0 0 1 1 1 1 0 0 0 1 1 1 0 0 0 0 0 0 0 0 0 0 0 0 0 0 0
3 3 2 1 0 0 0 0 0 0 0 0 0 0 0 0 0 0 1 2 2 1 0 0 0 0 0 0 0 0 0 0 0 0 0 0 0 0 0 0 0 0 0
4 3 1 1 0 0 0 0 0 0 0 0 0 0 0 0 0 0 0 1 1 1 0 0 0 0 0 0 0 0 0 0 0 1 1 1 0 0 0 0 0 0 0
4 2 1 1 1 1 0 0 0 0 0 0 0 0 0 0 0 0 0 0 0 0 0 0 0 0 0 0 0 0 0 0 0 1 1 1 0 0 0 0 0 0 0
5 4 3 3 4 3 1 0 0 0 0 0 0 0 0 0 0 0 0 0 0 0 0 0 0 0 0 0 0 0 0 0 0 0 0 0 0 0 0 0 0 0 0
8 8 7 6 6 5 3 1 0 0 0 0 0 0 0 0 0 0 0 0 0 0 0 0 0 0 0 0 0 0 0 0 0 0 0 0 0 0 0 0 0 0 0
10 11 10 9 7 6 4 3 1 0 0 0 0 0 0 0 0 0 0 0 0 0 0 0 0 0 0 0 0 0 0 0 0 0 0 0 0 0 0 0 0 0 0
11 13 13 11 11 9 7 5 4 2 1 1 1 1 2 2 1 0 0 0 0 0 0 0 0 0 0 0 0 0 0 0 0 0 0 0 0 0 0 0 0 0 0
14 15 15 14 15 14 12 10 8 6 5 3 4 4 4 4 1 0 0 0 0 0 0 0 0 0 0 0 0 0 0 0 0 0 0 0 0 0 0 0 0 0 0
18 20 20 20 20 19 17 15 12 10 8 6 6 5 5 4 1 0 0 0 0 0 0 0 0 0 0 0 0 0 0 0 0 0 0 0 0 0 0 0 0 0 0
28 29 30 28 27 25 21 17 14 11 9 7 6 5 5 4 1 0 0 0 0 0 0 0 0 0 0 0 0 0 0 0 0 0 0 0 0 0 0 0 0 0 0
39 40 40 38 35 30 24 18 14 12 9 7 6 6 6 3 1 0 0 0 0 0 0 0 0 1 1 0 0 0 0 0 0 0 0 0 0 0 0 0 0 0 0
44 45 44 45 42 37 29 22 18 15 11 9 8 7 6 3 1 1 1 1 1 1 1 1 1 2 2 1 1 1 1 0 0 0 0 0 0 0 0 0 0 0 0
44 43 44 48 48 43 36 29 24 19 14 12 10 8 5 4 3 3 2 3 2 2 2 2 2 3 3 3 3 2 1 0 0 0 0 0 0 0 0 0 0 0 0
42 41 45 51 51 46 39 31 26 21 16 14 12 10 7 7 6 5 4 5 5 4 3 3 3 3 3 3 3 3 2 0 0 0 0 0 0 0 0 0 0 0 0
41 42 47 52 52 48 39 31 26 22 17 15 14 12 10 10 10 7 5 8 7 5 3 3 3 3 3 3 3 3 3 1 0 0 0 0 0 0 0 0 0 0 0

GEFSSE_con_prob3kmehi_204.txt.gz
EHI
2 2 2 1 0 0 0 0 1 3 2 1 0 0 0 0 0 0 0 0 0 0 0 0 0 0 0 0 0 0 0 1 1 0 0 0 0 0 0 0 0 0 0
2 1 1 0 0 0 0 0 1 2 1 0 0 0 0 0 0 0 0 0 0 0 0 0 0 0 0 0 0 0 0 1 1 0 0 0 0 0 0 0 0 0 0
1 0 0 0 0 0 0 0 0 0 0 0 0 0 0 0 0 0 0 0 0 0 0 0 0 0 0 0 0 0 0 1 1 0 0 0 0 0 1 0 0 0 0
1 0 0 0 0 0 0 0 0 0 0 0 1 1 1 1 1 0 0 0 0 0 0 0 1 0 0 0 0 0 0 0 0 0 0 0 0 0 0 0 0 0 0
2 1 0 0 0 0 0 0 0 0 0 0 1 2 1 1 0 0 0 0 0 0 0 0 0 0 0 0 0 0 0 1 1 0 0 0 0 0 0 0 0 0 0
2 1 0 0 0 0 0 0 0 0 0 0 1 2 1 0 0 0 0 0 0 0 0 0 0 0 0 0 0 0 1 3 2 1 0 0 0 0 0 0 0 0 0
1 1 0 0 0 0 0 0 0 0 0 0 0 0 0 0 0 0 0 1 1 0 0 0 0 0 0 0 0 0 3 4 3 1 0 0 0 0 0 0 0 0 0
2 2 1 0 0 0 0 0 0 0 0 0 0 0 0 0 0 0 0 1 1 0 0 0 0 0 0 0 0 1 5 6 3 1 0 0 0 0 0 0 0 0 0
5 3 1 1 2 1 0 0 0 0 0 0 0 0 0 0 0 0 0 1 1 0 0 0 0 0 0 0 1 2 6 7 4 1 1 0 0 0 0 0 0 0 0
6 4 2 2 3 1 0 0 1 1 0 0 0 0 0 0 0 0 0 0 0 0 0 0 0 0 0 1 2 4 6 5 3 3 2 1 1 0 0 0 0 0 0
8 5 3 3 2 0 0 0 1 1 0 0 0 0 0 0 0 0 0 0 0 0 0 0 0 1 1 2 4 6 6 4 4 4 4 3 2 1 0 0 0 0 0
11 7 4 3 2 1 1 1 1 1 1 0 0 1 0 0 0 0 1 1 1 0 0 0 1 2 2 2 4 7 6 4 4 4 5 5 4 1 0 0 0 0 0
12 8 6 6 5 4 3 3 3 3 3 1 2 2 1 0 1 1 2 2 1 0 0 1 2 3 3 3 3 5 5 3 3 4 5 6 5 2 1 0 0 0 0
14 12 11 11 9 7 6 4 4 5 5 4 4 3 1 0 2 3 2 1 0 0 0 1 2 2 3 3 2 3 3 3 3 4 6 7 6 3 1 0 0 0 0
21 20 20 17 15 13 9 5 3 5 6 6 5 3 1 1 2 3 2 0 0 0 0 0 1 1 1 2 2 2 2 3 5 6 6 7 6 4 2 0 0 0 0
31 30 28 25 23 20 12 5 2 4 6 6 6 6 3 1 2 4 2 1 0 0 0 0 0 1 1 1 1 2 2 4 6 7 7 6 5 4 2 1 1 1 0
40 39 34 30 30 26 16 7 3 4 6 9 11 9 6 3 4 4 3 2 1 1 0 0 0 1 0 0 1 2 4 5 6 7 7 7 6 4 3 3 2 2 1
53 50 42 36 36 31 21 13 9 10 14 17 17 14 9 7 6 6 5 4 3 2 1 0 1 1 0 0 1 2 5 6 6 6 7 9 10 7 4 3 4 4 3
66 61 52 46 46 39 28 21 19 19 21 24 26 24 18 13 9 7 7 5 3 2 1 1 2 1 0 0 0 1 4 6 8 8 8 9 13 12 7 5 5 5 4
77 72 63 59 56 48 36 29 25 23 23 26 34 35 28 19 13 10 7 4 2 1 1 2 3 2 1 1 1 1 3 9 13 14 11 10 13 14 12 11 9 5 3
87 82 75 70 65 54 42 35 30 26 24 28 36 39 33 24 18 13 8 6 4 3 3 3 4 4 3 3 3 1 3 10 15 17 14 12 13 13 15 19 17 10 7
91 89 84 79 73 61 48 40 35 31 29 32 39 41 36 28 21 14 11 11 9 9 8 8 8 7 6 6 6 4 4 6 9 12 14 14 15 16 15 19 24 21 17
90 90 87 84 79 71 59 46 39 37 36 39 45 45 39 31 22 15 14 14 14 13 13 14 12 9 7 6 7 7 5 3 3 6 11 15 18 17 12 12 21 26 24
88 89 89 88 85 81 68 52 45 42 40 42 47 48 43 34 25 20 19 20 17 14 15 16 13 11 10 8 6 7 8 5 4 4 6 11 16 14 9 7 13 23 25
87 89 92 93 91 87 75 59 50 46 41 42 48 51 46 37 29 24 25 27 23 18 16 17 18 16 13 11 8 8 9 9 7 4 3 5 8 9 7 7 9 17 22
88 89 93 95 95 90 79 63 52 46 42 45 52 53 45 36 31 27 28 33 29 22 19 22 23 20 14 12 11 11 9 9 9 6 2 1 3 5 7 9 11 15 19

GEFSSE_con_prob3kmehi_210.txt.gz
EHI
0 0 1 2 2 1 0 0 0 1 1 1 0 0 0 0 1 1 1 0 0 0 0 0 0 1 3 3 3 2 1 0 1 1 1 2 3 4 3 3 3 3 4
1 0 0 1 1 0 0 0 0 0 0 0 0 0 0 0 0 0 0 0 0 0 0 0 1 2 3 3 3 2 1 0 1 2 2 2 2 2 2 3 3 3 3
1 0 0 0 0 0 0 0 0 0 0 0 0 0 1 0 0 0 0 0 0 0 0 0 1 2 3 3 2 1 0 0 1 1 1 1 0 1 2 3 4 2 2
1 0 0 0 0 0 0 0 0 0 0 0 0 0 0 0 0 0 0 0 0 0 0 0 1 1 2 1 1 0 0 0 0 0 0 0 0 1 2 3 3 1 0
0 0 0 1 1 0 0 0 0 0 0 0 0 0 0 0 0 0 0 0 0 0 0 1 1 1 1 0 0 0 1 0 0 0 0 0 0 0 1 2 1 0 0
0 0 1 2 2 1 0 0 0 0 0 0 0 0 0 0 0 0 0 0 0 0 0 1 2 1 0 0 0 0 1 0 0 0 0 0 0 1 1 2 1 0 0
0 0 1 2 2 1 0 0 0 1 0 0 0 0 0 0 0 0 0 0 0 0 0 0 1 1 0 0 0 0 1 0 0 0 0 0 1 2 3 2 1 0 0
0 0 1 2 2 1 0 0 0 0 0 0 0 0 0 0 0 0 0 0 0 0 0 0 0 0 0 0 0 1 1 1 0 0 0 1 2 3 3 2 1 0 0
0 0 0 1 1 0 0 0 0 0 0 0 0 0 0 0 0 0 0 0 0 0 0 0 0 0 0 0 1 2 2 1 0 0 1 2 3 3 3 2 1 0 0
0 0 0 0 0 0 0 0 0 0 0 0 0 0 0 0 0 0 0 0 0 0 0 0 0 1 1 1 3 3 2 1 0 0 1 3 3 3 3 3 1 1 0
1 0 0 0 0 0 0 0 0 0 0 0 0 0 0 0 0 0 0 0 0 0 1 1 2 3 3 2 2 3 2 0 0 0 2 5 5 3 3 3 3 2 1
2 1 0 0 0 0 0 0 0 0 0 0 0 0 0 0 0 0 0 0 0 0 1 2 2 3 3 1 1 1 1 1 0 1 4 8 7 4 3 3 3 3 3
6 3 0 0 0 0 0 0 0 0 0 0 0 0 0 0 0 0 0 0 0 0 1 1 1 1 1 0 0 0 0 1 1 1 5 10 10 6 4 3 3 3 3
12 8 3 2 1 0 0 0 0 0 0 0 0 0 0 0 0 0 0 0 0 0 0 0 0 0 0 0 0 0 0 1 1 1 4 9 10 7 5 4 3 3 3
19 15 8 4 2 1 1 0 0 0 0 0 0 0 0 0 0 0 0 0 0 0 0 0 0 0 0 0 0 0 0 0 1 1 2 6 8 8 7 5 2 2 2
24 21 15 11 7 4 2 1 2 1 0 0 0 0 0 0 0 0 0 0 0 0 0 0 0 0 0 0 0 0 0 0 0 0 1 3 5 7 7 6 3 2 2
30 29 26 22 15 8 4 3 3 1 0 0 0 0 0 0 0 0 0 0 0 0 0 0 0 0 0 0 0 0 0 0 0 0 0 1 2 3 5 6 5 4 3
38 39 38 33 22 11 7 7 5 2 0 0 0 0 0 0 0 0 0 0 0 0 0 0 0 0 0 0 0 0 0 0 0 0 0 0 0 0 2 4 5 5 4
43 44 45 39 26 14 11 10 8 3 2 2 1 1 0 1 2 1 0 0 0 0 0 0 0 0 0 0 0 0 0 0 0 0 0 0 0 0 0 1 2 3 3
45 46 46 41 30 19 15 15 12 7 5 5 5 3 1 1 4 3 1 1 1 0 0 0 0 0 0 0 0 0 0 0 0 0 0 0 0 0 0 0 0 2 3
55 51 48 43 35 26 22 20 15 9 6 7 7 6 3 3 4 4 3 2 1 0 0 0 0 0 0 0 0 0 0 0 0 0 0 0 0 1 1 0 0 0 1
69 62 55 50 42 34 28 22 14 8 6 6 7 7 7 6 6 5 3 2 2 1 0 0 0 0 0 0 0 0 0 0 0 0 0 0 0 1 1 1 1 0 0
75 71 66 60 53 43 35 27 18 11 8 7 8 10 10 10 10 7 3 2 2 2 1 0 0 0 1 0 0 0 0 0 0 0 0 0 0 0 1 1 1 0 0
76 76 74 70 62 52 43 35 27 18 11 9 10 13 13 12 11 8 5 4 3 3 2 1 1 1 1 0 0 0 0 0 0 0 0 0 0 0 0 1 1 0 0
76 77 78 75 68 58 49 40 31 22 13 9 10 15 16 13 11 9 7 5 4 4 3 3 3 2 1 0 0 0 0 0 0 0 0 0 0 0 0 0 0 0 0
74 76 78 76 68 60 52 42 32 22 13 9 11 16 17 14 11 9 7 5 4 5 4 5 5 4 1 0 0 0 0 0 0 0 0 0 0 0 0 0 0 0 0